User: anonymous   Login
Location: Fort Wayne
(41.1310°N, 85.1290°W)
Time: 17:10:28
(UTC-04:00)
Language:

Meteor 2-10 Rocket - Orbit

View from above orbital plane
View from above orbital plane
View from above satellite
View from above satellite

Ground track
Ground track

The orbit data is extracted from the following two-line orbital elements,

1 14453U 83109B   16150.07991113  .00000045  00000-0  12619-4 0  9994
2 14453  81.1650 132.7075 0106179  94.8089 266.5224 14.24647090692839
Epoch (UTC): 29 May 2016 01:55:04
Eccentricity: 0.0106179
inclination: 81.1650°
perigee height: 733 km
apogee height: 886 km
right ascension of ascending node: 132.7075°
argument of perigee: 94.8089°
revolutions per day: 14.24647090
mean anomaly at epoch: 266.5224°
orbit number at epoch: 69283

The dashed part of the orbit path shows where the satellite is in the earth's shadow,  

DLR